Regional Weather Roundup
Issued by NWS

Home | Current Version | Previous Version | Text Only | Print | Product List | Glossary Off
Versions: 1 2 3 4 5 6 7 8 9 10 11 12 13 14 15 16 17 18 19 20 21 22 23 24 25 26 27 28 29 30 31 32 33 34 35 36 37 38 39 40 41 42 43 44 45 46 47 48 49 50

000
ASUS45 KBOU 041710
RWRCO

WEATHER ROUNDUP FOR COLORADO
NATIONAL WEATHER SERVICE DENVER/BOULDER CO
1100 AM MDT SAT JUL 04 2015

NOTE: "FAIR" INDICATES FEW OR NO CLOUDS BELOW 12000 FEET WITH NO
SIGNIFICANT WEATHER AND/OR OBSTRUCTIONS TO VISIBILITY.

COZ001>005-013-030-031-041800-
...NORTHWEST COLORADO...

CITY           SKY/WX    TMP DP  RH WIND       PRES   REMARKS
CRAIG          SUNNY     84  47  27 SW5       30.14F
HAYDEN         SUNNY     77  45  31 E6        30.17F
MEEKER         MOSUNNY   81  52  36 SW9       30.17F
MOUNT WERNER   NOT AVBL
STEAMBOAT SPGS SUNNY     76  49  38 W3        30.19F
WALDEN         MOSUNNY   73  41  31 SW9       30.27F
$$

COZ006>008-011-041800-
...WEST CENTRAL VALLEYS...

CITY           SKY/WX    TMP DP  RH WIND       PRES   REMARKS
GRAND JUNCTION MOSUNNY   83  49  30 SE7G17    30.07F
MONTROSE       PTSUNNY   77  52  41 SE12      30.18F
EAGLE          SUNNY     79  46  31 SW14G20   30.20F
RIFLE          SUNNY     81  54  39 N6        30.13F
DELTA          PTSUNNY   84  52  32 S6        30.13F
NUCLA          PTSUNNY   79  52  38 NW7       30.19F
$$

COZ017>023-064>068-041800-
...SOUTHWEST COLORADO...

CITY           SKY/WX    TMP DP  RH WIND       PRES   REMARKS
DURANGO        MOSUNNY   77  48  35 S7        30.23F
CORTEZ         SUNNY     79  52  38 S12       30.16F
PAGOSA SPRINGS MOSUNNY   72  44  35 SW5       30.32F
TELLURIDE      PTSUNNY   68  46  45 CALM      30.42F
WOLF CREEK PAS NOT AVBL
$$

COZ009-010-012-014-032>034-037-058>063-041800-
...CENTRAL COLORADO...

CITY           SKY/WX    TMP DP  RH WIND       PRES   REMARKS
ASPEN          SUNNY     75  46  35 VRB6      30.28F
BUENA VISTA    SUNNY     74  42  32 CALM      30.28F
COPPER MTN     SUNNY     61  37  41 W18G30    30.61R
BERTHOUD PASS  FAIR      52  41  66 N14G36    30.63S
COTTONWOOD PAS NOT AVBL
GUNNISON       MOSUNNY   68  48  49 S6        30.33F
KREMMLING      SUNNY     77  41  27 CALM      30.24F
LEADVILLE      SUNNY     69  39  33 NW13G20   30.42S
MONARCH PASS   SUNNY     54  43  66 W15G21    30.71S
SALIDA         SUNNY     81  45  28 SW12      30.31F
SUNLIGHT       SUNNY     66  50  55 CALM      30.55S
WILKERSON PASS SUNNY     61  43  51 NW6       30.56S
$$

COZ069>075-041800-
...SAN LUIS VALLEY/SANGRE DE CRISTO MOUNTAINS...

CITY           SKY/WX    TMP DP  RH WIND       PRES   REMARKS
ALAMOSA        SUNNY     70  50  49 CALM      30.30F
LA VETA PASS   SUNNY     59  50  72 MISG      30.46S
SAGUACHE       SUNNY     70  50  49 SE6       30.32F
$$

COZ035-036-038>040-041800-
...NORTHERN COLORADO FRONT RANGE...

CITY           SKY/WX    TMP DP  RH WIND       PRES   REMARKS
DENVER INTL AP MOSUNNY   84  53  34 CALM      30.02F
DMNS CITY PARK   N/A     86  50  28 E2        30.00F
AURORA         MOSUNNY   83  54  36 S3        30.05S
FRONT RANGE AP MOSUNNY   84  50  30 SW6       30.04S
ERIE MUNI ARPT SUNNY     82  56  41 CALM      30.00S
BOULDER MUN AP SUNNY     79  59  50 E5        30.00F
CENTENNIAL     MOSUNNY   84  48  28 VRB3      30.05F
BROOMFIELD     MOSUNNY   82  55  39 S5        30.04F
FORT COLLINS   SUNNY     79  61  53 CALM      29.99F
LONGMONT       SUNNY     85  57  39 CALM      30.00F
$$

COZ041-046-047-076>085-087-088-041800-
...PIKES PEAK/PALMER DIVIDE AND SOUTHERN FOOTHILLS...

CITY           SKY/WX    TMP DP  RH WIND       PRES   REMARKS
COLO. SPRINGS  MOSUNNY   78  56  46 S6        30.11S
A. F. ACADEMY  SUNNY     81  56  42 S6        30.11F
ELLICOTT       SUNNY    N/A N/A N/A S8        30.09S
FALCON         SUNNY     79  52  38 CALM      30.16S
FORT CARSON    SUNNY     75  57  53 VRB3      30.08S
LIMON          SUNNY     79  55  43 S15G22    30.05F
MONUMENT HILL  NOT AVBL
TRINIDAD       SUNNY     82  52  35 VRB3      30.10S
$$

COZ042>045-048>051-090-091-041800-
...NORTHEAST COLORADO...

CITY           SKY/WX    TMP DP  RH WIND       PRES   REMARKS
GREELEY ARPT   SUNNY     79  63  57 CALM      29.98F
AKRON          SUNNY     85  54  34 S10       29.98F
BURLINGTON     SUNNY     82  60  47 S16       29.99F
WRAY           SUNNY     87  58  38 SE10G20   29.95S
STERLING       SUNNY     82  61  47 SW3         N/A
HOLYOKE        SUNNY     84  63  48 S10       29.95F
FORT MORGAN    SUNNY     83  54  37 CALM      29.97F
$$

COZ086-089-092>099-041800-
...SOUTHEAST COLORADO...

CITY           SKY/WX    TMP DP  RH WIND       PRES   REMARKS
PUEBLO         SUNNY     84  57  39 VRB3      29.99F
LA JUNTA       SUNNY     88  57  34 MISG      29.97F
LAMAR          SUNNY     85  58  39 E8        29.95F
SPRINGFIELD      N/A     85  58  39 S8        30.01S
$$



USA.gov is the U.S. government's official web portal to all federal, state and local government web resources and services.